Tracking 19706 objects as of 16-Jun-2019
HD Live streaming from Space Station
objects crossing your sky now

LANDSAT 2

Track LANDSAT 2 now!
10-day predictions
LANDSAT 2 is classified as:


NORAD ID: 7615
Int'l Code: 1975-004A
Perigee: 905.9 km
Apogee: 919.1 km
Inclination: 98.7 °
Period: 103.1 minutes
Semi major axis: 7283 km
RCS: 3.0869 m2 (large)
Launch date: January 22, 1975
Source: United States (US)
Launch site: AIR FORCE WESTERN TEST RANGE (AFWTR)
aabbcc
Your satellite tracking list
Your tracking list is empty




NASA's NSSDC Master Catalog

Two Line Element Set (TLE):
1  7615U 75004A   19167.51522101  .00000053  00000-0  67808-4 0  9997
2  7615  98.7485 177.6975 0009050 160.5092 199.6420 13.96670287262359
Source of the keplerian elements: AFSPC